Regional Weather Roundup
Issued by NWS Upton, NY

Current Version | Previous Version | Graphics & Text | Print | Product List | Glossary Off
Versions: 1 2 3 4 5 6 7 8 9 10 11 12 13 14 15 16 17 18 19 20 21 22 23 24 25 26 27 28 29 30 31 32 33 34 35 36 37 38 39 40 41 42 43 44 45 46 47 48 49 50

000
ASUS41 KOKX 042008
RWROKX

REGIONAL WEATHER ROUNDUP
NATIONAL WEATHER SERVICE NEW YORK NY
400 PM EDT MON MAY 04 2015

NOTE: "FAIR" INDICATES FEW OR NO CLOUDS BELOW 12,000 FEET WITH NO
SIGNIFICANT WEATHER AND/OR OBSTRUCTIONS TO VISIBILITY.

NYZ071-072-176-178-NJZ106-104-042100-
NEW YORK CITY METRO AREA


CITY           SKY/WX    TMP DP  RH WIND       PRES   REMARKS
CENTRAL PARK   SUNNY     82  41  23 S8        30.16F
LAGUARDIA APRT MOSUNNY   81  43  26 S20G26    30.13F
KENNEDY INTL   NOT AVBL
NEWARK/LIBERTY MOSUNNY   84  38  19 SW16G25   30.13F
BRNX BOT. GARD   N/A     79  43  27 S14       30.16R
TETERBORO      MOSUNNY   84  38  19 SW14G26   30.11F
$$

NYZ177-179-078>081-042100-
LONG ISLAND NEW YORK

CITY           SKY/WX    TMP DP  RH WIND       PRES   REMARKS
FARMINGDALE    SUNNY     73  46  38 SW17      30.17F
ISLIP          MOSUNNY   73  43  33 S13G23    30.17F
SHIRLEY        SUNNY     71  43  36 S15       30.20S
WESTHAMPTON    SUNNY     69  45  41 S9G18     30.20F
MONTAUK POINT    N/A     67  46  47 S12G21    30.20F
$$

NYZ052-065-067-042100-
HUDSON VALLEY

CITY           SKY/WX    TMP DP  RH WIND       PRES   REMARKS
WHITE PLAINS   MOSUNNY   79  42  26 S13G26    30.15S
NEWBURGH       MOSUNNY   82  41  23 W17G29    30.11F
MONTGOMERY     SUNNY     85  41  21 SW23G31   30.08F
POUGHKEEPSIE   SUNNY     86  36  16 SW15G21   30.08F
ALBANY         PTSUNNY   85  37  18 SW14      30.03F
$$

NJZ001-105-106-008-010-013-015-019>022-104-042100-
NEW JERSEY

CITY           SKY/WX    TMP DP  RH WIND       PRES   REMARKS
NEWARK/LIBERTY MOSUNNY   84  38  19 SW16G25   30.13F
TETERBORO      MOSUNNY   84  38  19 SW14G26   30.11F
CALDWELL       MOSUNNY   84  38  19 S12G21    30.13F
MORRISTOWN     MOSUNNY   84  39  20 SW15G23   30.13F
SOMERVILLE     MOSUNNY   85  40  20 SW9G17    30.11F
SUSSEX         MOSUNNY   83  40  21 S13G21    30.12F
ANDOVER          N/A     83  39  21 SW15G23   30.13F
TRENTON        MOSUNNY   83  43  24 SW17G24   30.15F
MILLVILLE      SUNNY     82  44  26 S8        30.20F
ATLANTIC CITY  MOSUNNY   80  46  30 S15G26    30.20F
WRIGHTSTOWN    MOSUNNY   84  43  23 W17G23    30.13F
TOMS RIVER     PTSUNNY   84  39  20 SW15G23   30.17R
BELMAR         SUNNY     84  39  20 SW13G21   30.16F
$$

PAZ047>061-062-071-042100-
EASTERN PENNSYLVANIA

CITY           SKY/WX    TMP DP  RH WIND       PRES   REMARKS
PHILADELPHIA   MOSUNNY   85  41  21 SW18G24   30.17F
ALLENTOWN      PTSUNNY   82  42  24 SW12G20   30.13F
SCRANTON       SUNNY     84  38  19 W15G28    30.10F
$$

CTZ002-004>006-009-010-012-RIZ004-006-007-MAZ004-011-015-042100-
SOUTHERN NEW ENGLAND
 IN CT

CITY           SKY/WX    TMP DP  RH WIND       PRES   REMARKS
BRADLEY INTL   PTSUNNY   85  43  22 SW10G22   30.08F
HARTFORD       SUNNY     82  41  23 SW20G33   30.10F
DANBURY        MOSUNNY   80  41  24 S17G26    30.13F
WTRBRY/OXFORD  MOSUNNY   79  45  29 S18G29    30.15F
BRIDGEPORT     MOSUNNY   76  45  33 S20       30.15F
MERIDEN        SUNNY     81  43  26 S18G25    30.13S
NEW HAVEN      SUNNY     70  49  47 S12       30.15F
CHESTER        FAIR      75  45  33 SW14G22   30.17F
GROTON         SUNNY     64  46  52 SW10      30.17F
WILLIMANTIC    SUNNY     82  42  24 SW21G35   30.12F

 IN RI

CITY           SKY/WX    TMP DP  RH WIND       PRES   REMARKS
PROVIDENCE     PTSUNNY   80  43  26 SW21G30   30.14S
BLOCK ISLAND   SUNNY     63  45  51 SW20G25   30.19F
WESTERLY       SUNNY     68  44  42 SW13G21   30.19F

 IN MA

CITY           SKY/WX    TMP DP  RH WIND       PRES   REMARKS
BOSTON         MOSUNNY   78  43  28 S18       30.07F
WORCESTER      MOSUNNY   80  35  19 SW14G22   30.11F
WESTFIELD      PTSUNNY   85  37  18 S15G26    30.07F
PROVINCETOWN   SUNNY     64  46  52 S18G24    30.15F
NANTUCKET      SUNNY     57  51  80 S13       30.21F
$$

ANZ330-335-338-340-345-350-353-355-042100-
COASTAL MARINE OBSERVATIONS


STATION/POSITION TIME  SKY/WX   TEMP    WIND        PRES    VSBY  WAVE
                                AIR SEA DIR/SP/G                  HT/PER
                 (UTC)          (F)     (DEG/KT/KT) (MB)    (MI)  (FT/S)
NY HARB ENTRANCE 1950            58 53  180/ 16/ 17 1021.0          3/11
4S FIRE IS       1903               51                N/A           3/ 8
20S FIRE ISLAND  1950            54 49  190/ 14/ 16 1022.2          3/ 8
GREAT SOUTH BAY  1900            59 60  250/  4/ 10   N/A
23SW MTP         1950            51 46  210/ 12/ 14 1022.6          3/ 9
HUDSON CANYON    NOT AVBL
KINGS POINT      1900            70 48  200/ 16/ 19 1020.7
EASTERN LI SOUND 1900            53     210/  6/  8   N/A
ROBBINS REEF     1900            71     160/ 16/ 18 1019.7
$$


>>>>>>>>>>>>>>>>>>>>>>>>>>>> KEY <<<<<<<<<<<<<<<<<<<<<<<<<<<
>                                                          <
>     SKY/WX - SKY CONDITION/PRESENT WEATHER               <
>     TMP    - TEMPERATURE IN FAHRENHEIT                   <
>     DP     - DEWPOINT IN FAHRENHEIT                      <
>     RH     - RELATIVE HUMIDITY IN PERCENT                <
>     WIND   - DIRECTION AND SPEED IN MPH                  <
>     PRES   - MEAN SEA LEVEL PRESSURE IN INCHES OF HG     <
>     WCI    - WIND CHILL INDEX                            <
>     VSB    - VISIBILITY IN MILES                         <
>     HX     - HEAT INDEX                                  <
>     TC     - TEMPERATURE IN CELSIUS                      <
>     VRB    - VARIABLE WIND DIRECTION                     <
>                                                          <
>>>>>>>>>>>>>>>>>>>>>>>>>>>> KEY <<<<<<<<<<<<<<<<<<<<<<<<<<<





USA.gov is the U.S. government's official web portal to all federal, state and local government web resources and services.